• In Denmark
  • List of Countries
  • For 7 days
  • Water Temperature
  • Satellite Maps
  • Weather Map
  • Weather Widgets
  • user-avatar
    Login

    Hourly Weather Perth

    Today, 22 September, Friday

    Time Temperature Precipitation Wind Pressure Humidity
    00:00 +14°C° 0.2 mm 7 mps 753 mmHg 78%
    01:00 +14°C° 0.2 mm 7 mps 752 mmHg 78%
    02:00 +15°C° 0 mm 7 mps 751 mmHg 79%
    03:00 +15°C° 0.3 mm 7 mps 751 mmHg 79%
    04:00 +15°C° 0.3 mm 8 mps 751 mmHg 79%
    05:00 +15°C° 0.3 mm 8 mps 750 mmHg 79%
    06:00 +15°C° 0.9 mm 9 mps 750 mmHg 80%
    07:00 +14°C° 0.9 mm 10 mps 750 mmHg 80%
    08:00 +14°C° 0 mm 10 mps 749 mmHg 81%
    09:00 +14°C° 1.5 mm 10 mps 750 mmHg 79%
    10:00 +14°C° 1.5 mm 10 mps 750 mmHg 78%
    11:00 +14°C° 1.5 mm 10 mps 750 mmHg 77%
    12:00 +14°C° 0.5 mm 11 mps 750 mmHg 72%
    13:00 +15°C° 0.5 mm 12 mps 750 mmHg 68%
    14:00 +17°C° 0 mm 12 mps 751 mmHg 64%
    15:00 +17°C° 0.2 mm 11 mps 751 mmHg 64%
    16:00 +17°C° 0.2 mm 10 mps 752 mmHg 64%
    17:00 +16°C° 0.2 mm 9 mps 752 mmHg 64%
    18:00 +16°C° 0.2 mm 8 mps 753 mmHg 68%
    19:00 +15°C° 0.2 mm 7 mps 754 mmHg 72%
    20:00 +14°C° 0.2 mm 7 mps 754 mmHg 77%
    21:00 +14°C° 0.2 mm 6 mps 755 mmHg 79%
    22:00 +13°C° 0.2 mm 6 mps 755 mmHg 80%
    23:00 +13°C° 0.2 mm 6 mps 756 mmHg 82%

    Tomorrow, 23 September, Saturday

    Time Temperature Precipitation Wind Pressure Humidity
    00:00 +13°C° 0.2 mm 6 mps 756 mmHg 82%
    01:00 +13°C° 0.2 mm 6 mps 756 mmHg 81%
    02:00 +13°C° 0.2 mm 6 mps 756 mmHg 81%
    03:00 +11°C° 0.1 mm 6 mps 756 mmHg 81%
    04:00 +11°C° 0.1 mm 6 mps 756 mmHg 80%
    05:00 +12°C° 0.1 mm 5 mps 757 mmHg 79%
    06:00 +13°C° 0.2 mm 6 mps 757 mmHg 78%
    07:00 +13°C° 0.2 mm 6 mps 757 mmHg 77%
    08:00 +14°C° 0.2 mm 6 mps 758 mmHg 76%
    09:00 +15°C° 0.2 mm 6 mps 758 mmHg 69%
    10:00 +16°C° 0.2 mm 6 mps 758 mmHg 63%
    11:00 +16°C° 0.2 mm 6 mps 758 mmHg 56%
    12:00 +17°C° 0.1 mm 6 mps 757 mmHg 55%
    13:00 +17°C° 0.1 mm 6 mps 757 mmHg 53%
    14:00 +17°C° 0.1 mm 6 mps 757 mmHg 52%
    15:00 +17°C° 0.1 mm 5 mps 757 mmHg 55%
    16:00 +16°C° 0.1 mm 5 mps 757 mmHg 58%
    17:00 +15°C° 0.1 mm 4 mps 757 mmHg 61%
    18:00 +14°C° 0.1 mm 4 mps 757 mmHg 66%
    19:00 +13°C° 0.1 mm 3 mps 757 mmHg 72%
    20:00 +13°C° 0.1 mm 2 mps 757 mmHg 77%
    21:00 +13°C° 0.2 mm 2 mps 757 mmHg 78%
    22:00 +12°C° 0.2 mm 2 mps 757 mmHg 80%
    23:00 +12°C° 0.2 mm 2 mps 757 mmHg 82%

    Day after tomorrow, 24 September, Sunday

    Time Temperature Precipitation Wind Pressure Humidity
    00:00 +12°C° 0.5 mm 2 mps 757 mmHg 84%
    01:00 +12°C° 0.5 mm 2 mps 756 mmHg 86%
    02:00 +12°C° 0.5 mm 2 mps 756 mmHg 88%
    03:00 +12°C° 1.2 mm 2 mps 755 mmHg 89%
    04:00 +12°C° 1.2 mm 2 mps 755 mmHg 91%
    05:00 +12°C° 1.2 mm 2 mps 755 mmHg 93%
    06:00 +12°C° 1 mm 2 mps 755 mmHg 91%
    07:00 +12°C° 1 mm 2 mps 755 mmHg 90%
    08:00 +13°C° 1 mm 2 mps 755 mmHg 88%
    09:00 +14°C° 0.3 mm 2 mps 755 mmHg 80%
    10:00 +16°C° 0.3 mm 2 mps 755 mmHg 71%
    11:00 +18°C° 0.3 mm 2 mps 755 mmHg 63%
    12:00 +18°C° 0.2 mm 2 mps 754 mmHg 61%
    13:00 +18°C° 0.2 mm 3 mps 753 mmHg 59%
    14:00 +19°C° 0.2 mm 3 mps 752 mmHg 58%
    15:00 +18°C° 1 mm 4 mps 752 mmHg 66%
    16:00 +15°C° 1 mm 4 mps 752 mmHg 75%
    17:00 +14°C° 1 mm 5 mps 752 mmHg 84%
    18:00 +14°C° 0.8 mm 5 mps 752 mmHg 83%
    19:00 +13°C° 0.8 mm 5 mps 752 mmHg 82%
    20:00 +13°C° 0.8 mm 5 mps 753 mmHg 81%
    21:00 +12°C° 0.4 mm 4 mps 753 mmHg 82%
    22:00 +12°C° 0.4 mm 4 mps 753 mmHg 84%
    23:00 +11°C° 0.4 mm 4 mps 753 mmHg 85%

    25 September, Monday

    Time Temperature Precipitation Wind Pressure Humidity
    00:00 +11°C° 0.9 mm 4 mps 752 mmHg 85%
    01:00 +11°C° 0.9 mm 4 mps 752 mmHg 86%
    02:00 +11°C° 0.9 mm 4 mps 752 mmHg 87%
    03:00 +11°C° 0.9 mm 3 mps 752 mmHg 88%
    04:00 +10°C° 0.9 mm 3 mps 752 mmHg 89%
    05:00 +10°C° 0.9 mm 3 mps 752 mmHg 90%
    06:00 +11°C° 0.8 mm 3 mps 752 mmHg 89%
    07:00 +11°C° 0.8 mm 4 mps 752 mmHg 88%
    08:00 +11°C° 0.8 mm 4 mps 752 mmHg 86%
    09:00 +12°C° 0.9 mm 4 mps 752 mmHg 82%
    10:00 +13°C° 0.9 mm 4 mps 752 mmHg 78%
    11:00 +14°C° 0.9 mm 4 mps 752 mmHg 74%
    12:00 +16°C° 0.4 mm 3 mps 752 mmHg 70%
    13:00 +16°C° 0.4 mm 3 mps 751 mmHg 65%
    14:00 +17°C° 0.4 mm 2 mps 751 mmHg 61%
    15:00 +17°C° 0.5 mm 2 mps 751 mmHg 65%
    16:00 +16°C° 0.5 mm 2 mps 751 mmHg 69%
    17:00 +16°C° 0.5 mm 2 mps 751 mmHg 73%
    18:00 +13°C° 0.1 mm 3 mps 752 mmHg 76%
    19:00 +12°C° 0.1 mm 3 mps 752 mmHg 79%
    20:00 +11°C° 0.1 mm 3 mps 753 mmHg 82%
    21:00 +11°C° 0 mm 3 mps 753 mmHg 84%
    22:00 +10°C° 0 mm 3 mps 753 mmHg 85%
    23:00 +10°C° 0 mm 3 mps 753 mmHg 87%

    26 September, Tuesday

    Time Temperature Precipitation Wind Pressure Humidity
    00:00 +9°C° 0 mm 3 mps 753 mmHg 88%
    01:00 +9°C° 0 mm 3 mps 753 mmHg 88%
    02:00 +9°C° 0 mm 3 mps 753 mmHg 89%
    03:00 +9°C° 0 mm 3 mps 753 mmHg 90%
    04:00 +8°C° 0 mm 4 mps 754 mmHg 91%
    05:00 +8°C° 0 mm 4 mps 754 mmHg 92%
    06:00 +10°C° 0 mm 4 mps 755 mmHg 90%
    07:00 +10°C° 0 mm 5 mps 755 mmHg 88%
    08:00 +12°C° 0 mm 5 mps 756 mmHg 85%
    09:00 +13°C° 0.1 mm 5 mps 756 mmHg 78%
    10:00 +15°C° 0.1 mm 5 mps 756 mmHg 72%
    11:00 +16°C° 0.1 mm 5 mps 756 mmHg 65%
    12:00 +17°C° 0.5 mm 5 mps 756 mmHg 64%
    13:00 +17°C° 0.5 mm 5 mps 756 mmHg 64%
    14:00 +17°C° 0.5 mm 5 mps 756 mmHg 64%
    15:00 +16°C° 0.6 mm 5 mps 756 mmHg 68%
    16:00 +17°C° 0.6 mm 4 mps 757 mmHg 72%
    17:00 +15°C° 0.6 mm 4 mps 757 mmHg 76%
    18:00 +14°C° 0.1 mm 4 mps 758 mmHg 79%
    19:00 +13°C° 0.1 mm 4 mps 759 mmHg 82%
    20:00 +12°C° 0.1 mm 4 mps 759 mmHg 85%
    21:00 +11°C° 0 mm 4 mps 760 mmHg 86%
    22:00 +10°C° 0 mm 4 mps 760 mmHg 87%
    23:00 +10°C° 0 mm 4 mps 760 mmHg 88%

    27 September, Wednesday

    Time Temperature Precipitation Wind Pressure Humidity
    00:00 +9°C° 0 mm 3 mps 760 mmHg 89%
    01:00 +9°C° 0 mm 3 mps 760 mmHg 90%
    02:00 +8°C° 0 mm 3 mps 760 mmHg 90%
    03:00 +8°C° 0 mm 3 mps 760 mmHg 90%
    04:00 +8°C° 0 mm 3 mps 760 mmHg 90%
    05:00 +7°C° 0 mm 2 mps 760 mmHg 91%
    06:00 +8°C° 0 mm 2 mps 761 mmHg 88%
    07:00 +9°C° 0 mm 2 mps 761 mmHg 85%
    08:00 +12°C° 0 mm 2 mps 762 mmHg 82%
    09:00 +14°C° 0 mm 2 mps 762 mmHg 72%
    10:00 +16°C° 0 mm 1 mps 762 mmHg 61%
    11:00 +18°C° 0 mm 0 mps 761 mmHg 50%
    12:00 +20°C° 0 mm 1 mps 761 mmHg 51%
    13:00 +19°C° 0 mm 1 mps 760 mmHg 51%
    14:00 +18°C° 0 mm 2 mps 760 mmHg 52%
    15:00 +18°C° 0 mm 2 mps 760 mmHg 55%
    16:00 +17°C° 0 mm 3 mps 760 mmHg 58%
    17:00 +17°C° 0 mm 3 mps 760 mmHg 61%
    18:00 +16°C° 0 mm 3 mps 761 mmHg 65%
    19:00 +15°C° 0 mm 2 mps 761 mmHg 69%
    20:00 +14°C° 0 mm 2 mps 761 mmHg 72%
    21:00 +13°C° 0.1 mm 2 mps 761 mmHg 75%
    22:00 +13°C° 0.1 mm 2 mps 761 mmHg 77%
    23:00 +12°C° 0.1 mm 2 mps 761 mmHg 79%
    Show more